This is the latest recevied weather packets stored in our database for station/object NR6G-15. If no packets are shown the sender has not sent any weather packets the latest 10 day(s).
| Time | Temp. | Humidity | Pressure | Rain* | Wind** | Luminosity | Snow |
|---|---|---|---|---|---|---|---|
| 1787953346 | 16.67° C | 73% | 1025.9 hPa | 0 mm | - | - | - |
| 1787953046 | 16.67° C | 75% | 1026 hPa | 0 mm | - | - | - |
| 1787952746 | 17.22° C | 72% | 1025.8 hPa | 0 mm | - | - | - |
| 1787952446 | 17.22° C | 70% | 1026.5 hPa | 0 mm | - | - | - |
| 1787952146 | 17.22° C | 72% | 1026.3 hPa | 0 mm | - | - | - |
| 1787951846 | 17.22° C | 72% | 1026.2 hPa | 0 mm | - | - | - |
| 1787951546 | 17.78° C | 70% | 1026 hPa | 0 mm | - | - | - |
| 1787951074 | 17.22° C | 68% | 1026.1 hPa | 0 mm | - | - | - |
| 1787950774 | 17.22° C | 71% | 1026 hPa | 0 mm | - | - | - |
| 1787950474 | 16.67° C | 74% | 1026 hPa | 0 mm | - | - | - |
| 1787950174 | 16.67° C | 76% | 1026.7 hPa | 0 mm | - | - | - |
| 1787949874 | 16.11° C | 75% | 1026.7 hPa | 0 mm | - | - | - |
| 1787949574 | 16.11° C | 77% | 1026.6 hPa | 0 mm | - | - | - |
| 1787949274 | 16.11° C | 77% | 1026.7 hPa | 0 mm | - | - | - |
| 1787948974 | 16.11° C | 77% | 1026.6 hPa | 0 mm | - | - | - |
| 1787948674 | 16.11° C | 78% | 1026.7 hPa | 0 mm | - | - | - |
| 1787948374 | 16.11° C | 76% | 1027 hPa | 0 mm | - | - | - |
| 1787948074 | 16.67° C | 76% | 1027.1 hPa | 0 mm | - | - | - |
| 1787947774 | 17.22° C | 71% | 1027.1 hPa | 0 mm | - | - | - |
| 1787947474 | 18.33° C | 68% | 1026.9 hPa | 0 mm | - | - | - |
| 1787946900 | 18.33° C | 64% | 1026.6 hPa | 0 mm | - | - | - |
| 1787946600 | 18.33° C | 63% | 1026.5 hPa | 0 mm | - | - | - |
| 1787946300 | 18.33° C | 64% | 1026.5 hPa | 0 mm | - | - | - |
| 1787946000 | 18.33° C | 64% | 1026.5 hPa | 0 mm | - | - | - |
| 1787945701 | 18.33° C | 64% | 1026.3 hPa | 0 mm | - | - | - |
* Rain latest hour (hover to see other rain measurements)
** Current wind speed in m/s (hover to see current wind gust speed)